DELTA 1 DEB, 42080

Orbit data source: Space-Track

DELTA 1 DEB, 42080 is space debris in SSO originally from a launch on Sun, 15 Dec 1968 UTC launched from the Air Force Western Test Range (AFWTR). Debris objects in space refer to the collection of defunct objects orbiting the Earth. Examples of debris include non-operational satellites, rocket bodies, and fragments generated from explosions, collisions, or faulty payload assembly.

Loading next visibility...
Identifier
42080, 1968-114G
Orbit
SSO
Country
Flag of USUS
Related business
Manufacturer
Aerojet
Mission
Spacecraft
Bus & Motor
Unknown
Mass
Unknown
Launch date (UTC)
1968-12-15 (57 years ago)
Launch vehicle
Unknown
Launch site
Air Force Western Test Range (AFWTR)
Object type
Payload
Rocket body
Debris
Shape & HBR
Unknown shape, 0.1 m
Radar Cross Section
Small (<0.1 m²)

Expand to show TLE details & history
Last TLE update: 1 day ago

TLE from 1 day ago
0 DELTA 1 DEB
1 42080U 68114G   26036.11465581 -.00000025  00000-0  13777-3 0  9998
2 42080 101.8187 332.4175 0067796  99.2196 280.6079 12.39296219552253
Epoch: 2026-02-05T02:45Z
TLE epoch observation values (Epoch: 2026-02-05T02:45:06.261Z)
Latitude
18.6418°
Longitude
151.84179°
Altitude
1,502.158 km
Speed
7.119 km/s
True Right ascension
21h 53m 33s
True Declination
18° 32' 52"
Sunlit
Object was in daylight at epoch
Visualization orbit readout
Latitude
Unknown
Longitude
Unknown
Altitude
Unknown
Speed
Unknown
Apparent Right ascension
Unknown
Apparent Declination
Unknown
Sunlit
N/A
Visualization observer readout
Local Sidereal Time
11:16:44
Azimuth
Unknown
Elevation
Unknown
Doppler factor
Unknown
Orbital elements
Apogee altitude
1,560.612 km
Perigee altitude
1,453.694 km
Semi-major axis
7,885.29 km
Eccentricity
0.00678
Inclination
101.8187°
RAAN
332.4175°
Arg. of periapsis
99.2196°
True anomaly
279.84312°
Mean anomaly
280.6079°
Eccentric anomaly
280.22563°
Mean motion
3.09968 °/min
Orbital period
116.14 mins
BSTAR
0.00013777
Loading maneuver chart data...
Computing Atmospheric mass density...
Loading historical data...
Loading historical data...
Loading historical data...
Loading historical data...
Loading historical data...
Loading historical data...
Loading historical data...

Documentation

Showing up to 5 results
|